Regional Weather Roundup
Issued by NWS Green Bay, WI

Home | Current Version | Previous Version | Text Only | Print | Product List | Glossary On
Versions: 1 2 3 4 5 6 7 8 9 10 11 12 13 14 15 16 17 18 19 20 21 22 23 24 25 26 27 28 29 30 31 32 33 34 35 36 37 38 39 40 41 42 43 44 45 46 47 48 49 50
000
ASUS43 KGRB 272011
RWRGRB

NORTH-CENTRAL AND NORTHEAST WISCONSIN REGIONAL WEATHER ROUNDUP
NATIONAL WEATHER SERVICE GREEN BAY WI
300 PM CDT SAT MAY 27 2017

WIZ005-009-010>012-018-019-272100-
NORTH CENTRAL WISCONSIN

CITY           SKY/WX    TMP DP  RH WIND       PRES   REMARKS
IRONWOOD       PTSUNNY   69  47  45 NW12G17   29.85S
MANITOWISH WTR CLOUDY    70  46  40 SW12G20   29.85S
ARBOR VITAE    CLOUDY    72  47  41 W8G16     29.85S
EAGLE RIVER    MOSUNNY   72  41  32 SW8G21    29.84S
LAND O LAKES   SUNNY     75  41  28 W7        29.85S
RHINELANDER    CLOUDY    76  47  35 W15       29.86S
PHILLIPS       PTSUNNY   69  46  44 SW9       29.88R
ANTIGO         MOSUNNY   72  51  48 W12G21    29.87R
TOMAHAWK       MOSUNNY   72  46  38 W10       29.88R
MERRILL        PTSUNNY   72  49  45 W16       29.88R
$$

WIZ013-073-272100-
NORTHEAST WISCONSIN

CITY           SKY/WX    TMP DP  RH WIND       PRES   REMARKS
IRON MOUNTAIN  PTSUNNY   79  46  31 SW13G18   29.80F
MARINETTE      NOT AVBL
OCONTO         PTSUNNY   74  55  50 S13       29.84S
$$

WIZ017-030-035>037-045-272100-
CENTRAL WISCONSIN

CITY           SKY/WX    TMP DP  RH WIND       PRES   REMARKS
MEDFORD        DRIZZLE   66  49  53 W12G18    29.89S
WAUSAU         CLOUDY    72  50  45 W13       29.86R
MOSINEE        MOSUNNY   73  52  46 W16       29.89R
MARSHFIELD     CLOUDY    72  49  44 W10       29.88R
WISC RAPIDS    CLOUDY    76  50  40 W10       29.88S
STEVENS POINT  CLOUDY    73  49  42 W8        29.88R
WAUPACA        CLOUDY    77  58  52 SW8G18    29.86R
SHAWANO        CLOUDY    77  57  49 S5        29.85S
CLINTONVILLE   CLOUDY    75  52  43 SW7       29.85S
WAUTOMA        PTSUNNY   77  59  53 SW12      29.86S
$$

WIZ038-039-048-051-272100-
FOX VALLEY

CITY           SKY/WX    TMP DP  RH WIND       PRES   REMARKS
NWS GREEN BAY  PTSUNNY   75  59  57 SW12      29.86F
APPLETON       PTSUNNY   73  54  49 S13       29.85F
OSHKOSH        CLOUDY    74  57  55 SW10G17   29.86F
FOND DU LAC    MOSUNNY   74  54  49 SW9       29.88F
$$

WIZ022-050-052-272100-
EAST CENTRAL WISCONSIN

CITY           SKY/WX    TMP DP  RH WIND       PRES   REMARKS
EPHRAIM        FAIR      72  53  51 S9G18     29.86S
WASHINGTON ISL MOCLDY    64  49  58 S14G20    29.86F
STURGEON BAY   CLOUDY    72  53  51 S13       29.87S
MANITOWOC      MOSUNNY   67  50  54 S15       29.88F
SHEBOYGAN      MOSUNNY   70  56  61 S12       29.88F
$$

LMZ563-521-522-541>543-272100-
LAKESHORE

STATION/POSITION TIME  TEMP    WIND        PRES    VSBY  WAVE
                       AIR SEA DIR/SP/G                  HT/PER
                 (UTC) (F)     (DEG/KT/KT) (MB)    (MI)  (FT/S)
SHEBOYGAN LKSHOR 2000   52     170/ 11/ 11 1012.0F
KEWAUNEE LKSHORE 1948   54     170/ 10/ 12 1011.5F
NORTHPORT PIER   1940   66     150/ 10/ 14 1011.2F
N MID LAKE BUOY  1950   47 43  200/  8/ 10 1012.9F         0
CHAMBERS ISLAND  1940   72     150/  6/ 16 1010.5F
MENOMINEE LKSHOR 1948          170/ 13/ 19 1009.6F
$$




USA.gov is the U.S. government's official web portal to all federal, state and local government web resources and services.